Regional Weather Roundup
Issued by NWS

Home | Current Version | Previous Version | Graphics & Text | Print | Product List | Glossary On
Versions: 1 2 3 4 5 6 7 8 9 10 11 12 13 14 15 16 17 18 19 20 21 22 23 24 25 26 27 28 29 30 31 32 33 34 35 36 37 38 39 40 41 42 43 44 45 46 47 48 49 50
000
ASUS43 KFSD 201610
RWRSD

WEATHER ROUNDUP FOR SOUTH DAKOTA
NATIONAL WEATHER SERVICE SIOUX FALLS SD
1100 AM CDT SUN MAY 20 2018

NOTE: "FAIR" INDICATES FEW OR NO CLOUDS BELOW 12,000 FEET WITH NO
SIGNIFICANT WEATHER AND/OR OBSTRUCTIONS TO VISIBILITY.


SDZ001>005-009-010-012>017-201700-
NORTHWEST AND NORTH CENTRAL SOUTH DAKOTA

CITY           SKY/WX    TMP DP  RH WIND       PRES   REMARKS
BUFFALO          N/A     58  37  45 S17G25    30.17F
FAITH            N/A     56  35  45 E8        30.26F
MOBRIDGE       SUNNY     60  40  47 S9        30.25F
$$

SDZ012>016-024>037-041>051-057-063-072>074-201700-
SOUTHWEST AND SOUTH CENTRAL SOUTH DAKOTA

CITY           SKY/WX    TMP DP  RH WIND       PRES   REMARKS
RAPID CTY ARPT PTSUNNY   53  39  59 SE12      30.27S
PIERRE         MOSUNNY   58  39  49 E6        30.25F
CUSTER         MOSUNNY   44  31  60 SE7       30.26S
ELLSWORTH AFB  MOSUNNY   55  36  48 SE13      30.26F
PHILIP         SUNNY     58  42  55 E7        30.25F
PINE RIDGE     MOSUNNY   54  39  57 W5        30.25F
SPEARFISH      FAIR      57  36  44 E13       30.22F
WINNER         FAIR      59  38  45 NE12      30.24S
$$

SDZ004>011-016>023-039-040-201700-
NORTHEAST SOUTH DAKOTA

CITY           SKY/WX    TMP DP  RH WIND       PRES   REMARKS
ABERDEEN       SUNNY     63  35  35 NE12G18   30.27F
WATERTOWN      SUNNY     57  34  41 E16       30.24S
BROOKINGS      CLOUDY    54  34  46 E14       30.23S
SISSETON         N/A     61  30  31 E10       30.26F
$$

SDZ017-020-022-023-036>040-048>070-201700-
SOUTHEAST SOUTH DAKOTA

CITY           SKY/WX    TMP DP  RH WIND       PRES   REMARKS
SIOUX FALLS    CLOUDY    50  41  71 E10       30.22R
HURON          SUNNY     59  37  44 E9G17     30.24S
CHAMBERLAIN    SUNNY     59  39  48 E8        30.23F
MITCHELL       CLOUDY    53  39  59 NE8       30.24R
YANKTON        CLOUDY    52  44  74 NE10      30.21R
$$

ABBREVIATIONS USED IN REMARKS
   TC - TEMPERATURE IN CELSIUS
  WCI - WIND CHILL INDEX
   HX - HEAT INDEX
  VSB - VISIBILITY





USA.gov is the U.S. government's official web portal to all federal, state and local government web resources and services.